KCVG Airport Diagram

We have created a template for each of the higher traffic airports in the vZID airspace. They include KCMH, KCRW, KCVG, KDAY, KIND, KLEX and KSDF. You wil find usefull information including the airport diagram, weather, and specific airport procedures.

KCVG Weather

[Source: ADDS]
METAR
KCVG 211752Z 08012KT 10SM FEW100 SCT140 BKN200 OVC250 17/09 A3007 RMK AO2 SLP177 VCSH S 60000 T01670089 10172 20106 58014 =
KCVG 211740Z 2118/2224 08012G18KT P6SM BKN150 FM220700 11009KT P6SM BKN250 FM221800 21011KT P6SM BKN250
TAF
KCVG 211740Z 2118/2224 08012G18KT P6SM BKN150 FM220700 11009KT P6SM BKN250 FM221800 21011KT P6SM BKN250 =

KCVG Operations

Calm Wind Configuration is Landing runways 36C and 36R, departing runway 27.

You can expect  this configuration up to and including a 10 knot tailwind.

The Center runway is the old 18R/36L in the default scenery. Additionally, runway 9/27 was lengthened to 12,000 feet when the west runway (18R/36L) was added.

Where parallel taxiways exist, inner taxiway is used by inbound traffic and outer taxiway is used by outbound traffic.

FDX & UPS use the ramp area at Terminal 1.

New Scenery is available at FlightSim.com.

On initial contact, arriving aircraft should notify the the controller which scenery they have.

 

JSN Epic template designed by JoomlaShine.com